Location: St. Louis
(38.6270°N, 90.1994°W)
Time: 20:41:41
(UTC-05:00)

deb Delta - Pass Details

Date: 10 July 2022
Orbit: 1084 x 1202 km, 99.8° (Epoch: 13 August)

Event Time Altitude Azimuth Distance (km) Brightness Sun altitude
Exits shadow 01:00:48 27° 106° (ESE) 2,105 ? -29.1°
Maximum altitude 01:03:36 37° 65° (ENE) 1,772 ? -29.1°
Drops below altitude 10° 01:09:57 10° 2° (N) 3,104 ? -29.1°
Sets 01:12:44 0° 354° (N) 4,056 ? -29.1°
